Regional Weather Roundup
Issued by NWS

Home | Current Version | Previous Version | Text Only | Print | Product List | Glossary On
Versions: 1 2 3 4 5 6 7 8 9 10 11 12 13 14 15 16 17 18 19 20 21 22 23 24 25 26 27 28 29 30 31 32 33 34 35 36 37 38 39 40 41 42 43 44 45 46 47 48 49 50
000
ASUS43 KLOT 242210
RWRIL

ILLINOIS REGIONAL WEATHER ROUNDUP
NATIONAL WEATHER SERVICE CHICAGO/ROMEOVILLE IL
500 PM CDT THU JUL 24 2014

NOTE: "FAIR" INDICATES FEW OR NO CLOUDS BELOW 12,000 FEET WITH NO
SIGNIFICANT WEATHER AND/OR OBSTRUCTIONS TO VISIBILITY.

* THESE STATIONS ARE NOT UNDER NWS QUALITY CONTROL. THEY ALSO MAY NOT
  REPORT WEATHER SUCH AS PRECIPITATION OR FOG.

ILZ001-002-007-009-015-016-024-242300-
NORTHWEST ILLINOIS

CITY           SKY/WX    TMP DP  RH WIND       PRES   REMARKS
MOLINE         MOSUNNY   76  55  48 CALM      30.08S
STERLING*      SUNNY     73  55  53 CALM      30.10R
SAVANNA*       MOSUNNY   78  49  36 SW3       30.09F
$$

ILZ003-004-008-010-011-017-018-242300-
NORTH CENTRAL ILLINOIS

CITY           SKY/WX    TMP DP  RH WIND       PRES   REMARKS
ROCKFORD       PTSUNNY   77  53  43 VRB3      30.10R
FREEPORT*      CLOUDY    71  52  49 CALM      30.12F
ROCHELLE*      MOSUNNY   76  49  38 CALM      30.10R
DE KALB*       SUNNY     72  51  47 CALM      30.10R
PERU*          MOSUNNY   77  54  45 E6        30.10R
$$

ILZ005-006-012>014-019>023-242300-
NORTHEAST ILLINOIS

CITY           SKY/WX    TMP DP  RH WIND       PRES   REMARKS
CHICAGO-OHARE  MOSUNNY   74  43  32 NE10      30.09F
CHICAGO-MIDWAY MOSUNNY   74  47  38 E10       30.09F
AURORA         SUNNY     76  47  35 N6        30.09F
LANSING*       SUNNY     70  50  49 NE7       30.09F
JOLIET*        SUNNY     74  44  33 CALM      30.09S
WAUKEGAN       SUNNY     68  44  42 E7        30.11S
DUPAGE AIRPORT SUNNY     76  48  37 N8        30.09S
KANKAKEE*      SUNNY     74  53  48 CALM      30.08F
WHEELING       SUNNY     72  44  36 VRB5      30.11F
MORRIS*        SUNNY     77  52  42 SE3       30.08R
ROMEOVILLE*    SUNNY     74  45  35 SE6       30.08S
$$

LMZ740>746-242300-
SOUTHERN LAKE MICHIGAN

STATION/POSITION SKY/WX   TEMP    WIND        PRES    VSBY  WAVE
                          AIR SEA DIR/SP/G                  HT/PER
                          (F)     (DEG/KT/KT) (MB)    (MI)  (FT/S)
SOUTHERN BUOY              62 62  310/  4/  6 1019.3F         1
WAUKEGAN HARBOR            64     130/  5/  6   N/A
HARRISON CRIB              64      20/  7/  8   N/A
CALUMET HARBOR             67      20/  6/  9 1017.8F
MICHIGAN CITY              66     360/ 10/ 11   N/A
MICHIGAN CITY 6N           66 69   20/  8/ 10   N/A           2/ 2
ST. JOSEPH                 57 51   20/  4/  6   N/A           2/ 4
$$

ILZ025>027-034>036-040-047-049-050-058-095>099-242300-
WEST-CENTRAL ILLINOIS

CITY           SKY/WX    TMP DP  RH WIND       PRES   REMARKS
QUINCY         MOSUNNY   77  54  44 NE3       30.08R
GALESBURG*     PTSUNNY   82  58  43 CALM      30.09S HX  82
MACOMB*        MOSUNNY   76  56  50 E7        30.11R
JACKSONVILLE*  SUNNY     78  55  43 NE8       30.08F
PITTSFIELD*    MOSUNNY   76  55  47 NE6       30.09S
$$

ILZ028>032-037-038-041>044-048-051>054-059>061-242300-
CENTRAL ILLINOIS

CITY           SKY/WX    TMP DP  RH WIND       PRES   REMARKS
PONTIAC        SUNNY     77  55  47 CALM      30.08R
DECATUR        SUNNY     77  56  48 CALM      30.07F
PEORIA         SUNNY     79  52  38 NE5       30.09R
LACON*         SUNNY     76  52  42 CALM      30.08R
LINCOLN*       SUNNY     78  53  41 E6        30.04R
SPRINGFIELD    SUNNY     79  55  43 NE8       30.07F
TAYLORVILLE    SUNNY     75  54  46 N6        30.06F
$$

ILZ033-039-045-046-055>057-062-063-242300-
EAST-CENTRAL ILLINOIS

CITY           SKY/WX    TMP DP  RH WIND       PRES   REMARKS
CHAMPAIGN      MOSUNNY   76  57  51 NE7       30.07F
DANVILLE*      SUNNY     73  56  54 NE6       30.04F
RANTOUL*       SUNNY     77  50  38 NE8       30.08S
MATTOON        MOSUNNY   77  56  48 N10       30.05F
PARIS*         PTSUNNY   77  58  51 NE3       30.06F
$$

ILZ079-100>102-242300-
SOUTHWEST ILLINOIS

CITY           SKY/WX    TMP DP  RH WIND       PRES   REMARKS
ALTON          MOSUNNY   79  54  41 N8        30.05F
BELLEVILLE     MOSUNNY   82  58  43 VRB5      30.03F HX  82
CAHOKIA*       SUNNY     82  54  37 E9        30.04F HX  81
SPARTA*        MOSUNNY   75  55  50 NE5       30.06F
$$

ILZ064>066-069>071-074>076-080>082-084>086-088>090-092>094-242300-
SOUTH-CENTRAL ILLINOIS

CITY           SKY/WX    TMP DP  RH WIND       PRES   REMARKS
CARBONDALE     MOSUNNY   80  58  46 NE9       30.04F HX  80
CAIRO*         MOSUNNY   79  61  53 N8        30.03F HX  80
EFFINGHAM*     MOSUNNY   79  51  37 NE3       30.06S
MARION         PTSUNNY   81  59  47 N12       30.04F HX  81
MT. VERNON     MOSUNNY   77  57  50 N3        30.05F
CENTRALIA*     MOSUNNY   82  53  36 NE3       30.05F HX  81
SALEM*         MOSUNNY   80  56  44 CALM      30.06F HX  80
METROPOLIS*    PTSUNNY   80  56  43 N7        30.03S HX  80
$$

ILZ067-068-072-073-078-083-087-091-242300-
SOUTHEAST ILLINOIS

CITY           SKY/WX    TMP DP  RH WIND       PRES   REMARKS
LAWRENCEVILLE  SUNNY     79  59  50 VRB7      30.04F HX  80
FLORA*         SUNNY     77  54  43 NE3       30.06S
FAIRFIELD*     MOSUNNY   79  59  50 NE6       30.04F HX  80
HARRISBURG*    SUNNY     76  59  55 N9        30.05F
ROBINSON*      PTSUNNY   81  58  45 NE7       30.05F HX  81
CARMI*         MOSUNNY   81  63  54 NE7       30.03F HX  82
$$

ABBREVIATIONS USED IN REMARKS
   TC - TEMPERATURE IN CELSIUS
  WCI - WIND CHILL INDEX
   HX - HEAT INDEX
  VSB - VISIBILITY
$$




USA.gov is the U.S. government's official web portal to all federal, state and local government web resources and services.